This is the latest recevied weather packets stored in our database for station/object K0SNA. If no packets are shown the sender has not sent any weather packets the latest 10 day(s).
| Time | Temp. | Humidity | Pressure | Rain* | Wind** | Luminosity | Snow |
|---|---|---|---|---|---|---|---|
| 1777394703 | 11.11° C | 52% | 1015.9 hPa | 0 mm | - | 635 W/m² | - |
| 1777394399 | 10.56° C | 53% | 1015.8 hPa | 0 mm | - | 603 W/m² | - |
| 1777394096 | 11.11° C | 52% | 1015.9 hPa | 0 mm | - | 593 W/m² | - |
| 1777393791 | 10.56° C | 54% | 1015.9 hPa | 0 mm | - | 592 W/m² | - |
| 1777393490 | 11.11° C | 54% | 1015.9 hPa | 0 mm | - | 524 W/m² | - |
| 1777393187 | 10.56° C | 55% | 1015.6 hPa | 0 mm | - | 605 W/m² | - |
| 1777392883 | 10° C | 55% | 1016.1 hPa | 0 mm | - | 602 W/m² | - |
| 1777392579 | 10° C | 55% | 1015.9 hPa | 0 mm | - | 524 W/m² | - |
| 1777392275 | 10° C | 55% | 1015.7 hPa | 0 mm | - | 571 W/m² | - |
| 1777391969 | 10° C | 55% | 1015.6 hPa | 0 mm | - | 563 W/m² | - |
| 1777391665 | 10° C | 56% | 1015.9 hPa | 0 mm | - | 556 W/m² | - |
| 1777391361 | 10.56° C | 58% | 1016 hPa | 0 mm | - | 562 W/m² | - |
| 1777391058 | 10° C | 57% | 1015.9 hPa | 0 mm | - | 484 W/m² | - |
| 1777390754 | 10° C | 57% | 1016.1 hPa | 0 mm | - | 494 W/m² | - |
| 1777390451 | 10° C | 58% | 1015.9 hPa | 0 mm | - | 508 W/m² | - |
| 1777390147 | 10° C | 56% | 1015.9 hPa | 0 mm | - | 487 W/m² | - |
| 1777389844 | 9.44° C | 58% | 1015.9 hPa | 0 mm | - | 446 W/m² | - |
| 1777389541 | 9.44° C | 58% | 1016 hPa | 0 mm | - | 480 W/m² | - |
| 1777389237 | 9.44° C | 60% | 1015.7 hPa | 0 mm | - | 454 W/m² | - |
| 1777388935 | 8.89° C | 59% | 1015.8 hPa | 0 mm | - | 452 W/m² | - |
| 1777388631 | 8.89° C | 60% | 1016 hPa | 0 mm | - | 449 W/m² | - |
| 1777388329 | 8.89° C | 60% | 1015.9 hPa | 0 mm | - | 449 W/m² | - |
| 1777388028 | 8.33° C | 60% | 1015.7 hPa | 0 mm | - | 437 W/m² | - |
| 1777387724 | 8.89° C | 61% | 1015.6 hPa | 0 mm | - | 428 W/m² | - |
| 1777387421 | 8.33° C | 61% | 1015.7 hPa | 0 mm | - | 414 W/m² | - |
* Rain latest hour (hover to see other rain measurements)
** Current wind speed in m/s (hover to see current wind gust speed)